User: anonymous   Login
Location: Dover
(39.1580°N, 75.5250°W)
Time: 19:16:49
(UTC-05:00)
Language:

SeaSat 1 - Orbit

View from above orbital plane
View from above orbital plane
View from above satellite
View from above satellite

Ground track
Ground track

The orbit data is extracted from the following two-line orbital elements,

1 10967U 78064A   17053.85972541 -.00000002  00000-0  39838-4 0  9993
2 10967 108.0133  60.5292 0001497 288.7448  71.3534 14.43623108 30106
Epoch (UTC): 22 February 2017 20:38:00
Eccentricity: 0.0001497
inclination: 108.0133°
perigee height: 745 km
apogee height: 747 km
right ascension of ascending node: 60.5292°
argument of perigee: 288.7448°
revolutions per day: 14.43623108
mean anomaly at epoch: 71.3534°
orbit number at epoch: 3010

The dashed part of the orbit path shows where the satellite is in the earth's shadow,  

DLR